DW6352 Weather Reports


Display with metric or nautical units.
time (UTC)temp
F
wind
direction
speed
MPH
gust
MPH
rain 1hr
in
rain 24hr
in
rain mn
in
humidity
%
barometer
mb
20260510023010 51 317 6.0 12.0 0.00 0.13 0.13 41 1013.1
20260510021513 51 335 6.0 15.0 0.00 0.13 0.13 39 1012.7
20260510020006 52 323 7.0 16.0 0.00 0.13 0.13 38 1012.3
20260510014503 52 318 8.0 14.0 0.00 0.13 0.13 37 1012.0
20260510013002 53 342 6.0 12.0 0.00 0.13 0.13 37 1011.7
20260510011600 53 347 7.0 15.0 0.00 0.13 0.13 36 1011.5
20260510010136 54 311 6.0 12.0 0.00 0.13 0.13 35 1011.3
20260510004557 54 342 8.0 14.0 0.00 0.13 0.13 34 1011.0
20260510003054 54 298 6.0 14.0 0.00 0.13 0.13 34 1010.7
20260510001552 54 325 7.0 16.0 0.00 0.13 0.13 33 1010.6
20260510000051 55 316 7.0 16.0 0.00 0.13 0.13 32 1010.4
20260509234604 55 342 9.0 16.0 0.00 0.13 0.13 31 1010.3
20260509233046 55 326 8.0 15.0 0.00 0.13 0.13 31 1010.0
20260509231545 56 324 5.0 15.0 0.00 0.13 0.13 32 1009.9
20260509230045 57 319 8.0 16.0 0.00 0.13 0.13 30 1009.7
20260509224543 57 306 11.0 17.0 0.00 0.13 0.13 31 1009.6
20260509223042 57 343 11.0 21.0 0.00 0.13 0.13 30 1009.4
20260509221540 57 9 9.0 17.0 0.00 0.13 0.13 30 1009.2
20260509220040 57 31 11.0 20.0 0.00 0.13 0.13 31 1009.2
20260509214542 57 320 11.0 20.0 0.00 0.13 0.13 30 1009.1
20260509213037 58 312 13.0 24.0 0.00 0.13 0.13 31 1009.0
20260509211542 57 319 10.0 23.0 0.00 0.13 0.13 32 1008.8
20260509210034 57 350 14.0 23.0 0.00 0.13 0.13 31 1008.7
20260509204533 57 333 16.0 26.0 0.00 0.13 0.13 31 1008.6
20260509203034 57 341 11.0 22.0 0.00 0.13 0.13 33 1008.7
20260509201531 57 34 11.0 20.0 0.00 0.13 0.13 33 1008.6
20260509200029 56 331 14.0 27.0 0.00 0.13 0.13 33 1008.7
20260509194529 56 336 14.0 27.0 0.00 0.13 0.13 33 1008.6
20260509193030 56 293 8.0 23.0 0.00 0.13 0.13 34 1008.4
20260509191527 56 311 11.0 23.0 0.00 0.13 0.13 36 1008.3
20260509190024 55 349 14.0 22.0 0.00 0.13 0.13 36 1008.1
20260509184530 55 311 10.0 23.0 0.00 0.13 0.13 36 1008.1
20260509183020 55 322 14.0 23.0 0.00 0.13 0.13 37 1007.9
20260509181518 55 327 7.0 22.0 0.00 0.13 0.13 38 1007.8
20260509180018 54 312 13.0 24.0 0.00 0.13 0.13 35 1007.8
20260509174514 55 360 11.0 21.0 0.00 0.13 0.13 36 1007.7
20260509173010 54 284 13.0 21.0 0.00 0.13 0.13 36 1007.6
20260509171509 54 22 12.0 21.0 0.00 0.13 0.13 37 1007.4
20260509170007 54 321 9.0 20.0 0.00 0.13 0.13 39 1007.3
20260509164504 53 330 14.0 23.0 0.00 0.13 0.13 42 1007.1
20260509163007 52 13 11.0 20.0 0.00 0.13 0.13 43 1007.0
20260509161502 52 296 11.0 21.0 0.00 0.13 0.13 43 1006.9
20260509160058 52 25 11.0 24.0 0.00 0.13 0.13 43 1006.7
20260509154557 52 344 12.0 22.0 0.00 0.13 0.13 44 1006.5
20260509153053 52 288 9.0 20.0 0.00 0.13 0.13 52 1006.2
20260509151552 51 312 12.0 21.0 0.00 0.13 0.13 51 1006.1
20260509150049 50 300 14.0 23.0 0.00 0.13 0.13 54 1005.9
20260509144547 50 277 12.0 20.0 0.00 0.13 0.13 57 1005.6
20260509143042 50 311 10.0 16.0 0.00 0.13 0.13 61 1005.2
20260509141538 50 325 7.0 17.0 0.00 0.13 0.13 66 1005.0
20260509140037 49 5 10.0 18.0 0.00 0.13 0.13 70 1004.9
20260509134534 49 346 10.0 16.0 0.00 0.13 0.13 74 1004.8
20260509133031 48 319 12.0 17.0 0.00 0.13 0.13 80 1004.6
20260509131529 47 344 7.0 15.0 0.00 0.13 0.13 86 1004.4
20260509130047 46 331 6.0 11.0 0.00 0.13 0.13 89 1004.3
20260509124523 45 298 4.0 9.0 0.00 0.13 0.13 90 1004.1
20260509123021 45 312 4.0 8.0 0.00 0.13 0.13 89 1003.7
20260509121515 45 304 4.0 8.0 0.00 0.13 0.13 89 1003.5
20260509120021 45 310 3.0 9.0 0.00 0.13 0.13 89 1003.3
20260509114510 45 312 3.0 8.0 0.00 0.13 0.13 89 1003.0
20260509113009 45 300 2.0 6.0 0.00 0.13 0.13 88 1002.8
20260509111506 45 336 2.0 6.0 0.00 0.13 0.13 87 1002.5
20260509110001 45 318 2.0 6.0 0.01 0.13 0.13 87 1002.4
20260509104559 45 321 2.0 5.0 0.01 0.13 0.13 87 1002.1
20260509103101 46 296 1.0 4.0 0.03 0.13 0.13 86 1001.9
20260509101556 46 262 1.0 3.0 0.06 0.13 0.13 86 1001.7
20260509100055 46 45 0.0 2.0 0.06 0.12 0.12 85 1001.5
20260509094554 46 45 0.0 0.0 0.09 0.12 0.12 84 1001.5
20260509093053 46 45 0.0 4.0 0.09 0.10 0.10 84 1001.7
20260509091559 47 44 4.0 8.0 0.07 0.07 0.07 83 1001.7
20260509090050 47 328 6.0 10.0 0.06 0.06 0.06 81 1002.0
20260509084547 48 349 4.0 12.0 0.03 0.03 0.03 78 1001.7
20260509083045 49 360 3.0 10.0 0.01 0.01 0.01 74 1001.6
20260509081549 50 324 11.0 17.0 0.00 0.00 0.00 68 1001.9
20260509080041 53 38 10.0 21.0 0.00 0.00 0.00 57 1001.5
20260509074539 54 317 13.0 22.0 0.00 0.00 0.00 47 1001.5
20260509073035 53 309 8.0 18.0 0.00 0.00 0.00 49 1001.4
20260509071531 51 272 5.0 12.0 0.00 0.00 0.00 48 1001.6
20260509070128 50 322 3.0 9.0 0.00 0.00 0.00 48 1001.4
20260509064525 47 324 3.0 5.0 0.00 0.00 0.00 52 1001.7
20260509063024 46 323 2.0 4.0 0.00 0.00 0.00 57 1001.6
20260509061522 46 305 0.0 0.0 0.00 0.00 0.00 57 1001.1
20260509060024 46 305 0.0 0.0 0.00 0.00 0.00 57 1000.9
20260509054517 47 305 1.0 2.0 0.00 0.00 0.00 56 1001.2
20260509053014 48 305 1.0 3.0 0.00 0.00 0.00 50 1001.3
20260509051511 49 305 1.0 3.0 0.00 0.00 0.00 50 1001.3
20260509050008 50 305 0.0 3.0 0.00 0.00 0.00 44 1001.7
20260509044507 51 306 1.0 3.0 0.00 0.00 0.00 41 1001.5
20260509043006 53 306 1.0 3.0 0.00 0.00 0.00 36 1001.5
20260509041508 54 327 1.0 4.0 0.00 0.00 0.00 34 1002.0
20260509040005 55 294 1.0 6.0 0.00 0.00 0.00 33 1001.9
20260509034505 55 281 3.0 7.0 0.00 0.00 0.00 32 1002.0
20260509033004 56 307 4.0 9.0 0.00 0.00 0.00 31 1002.0
20260509031504 57 300 3.0 8.0 0.00 0.00 0.00 31 1001.8
20260509030009 58 277 4.0 11.0 0.00 0.00 0.00 30 1001.8
20260509024504 58 279 7.0 13.0 0.00 0.00 0.00 29 1001.7